This is the latest recevied weather packets stored in our database for station/object WX7EM. If no packets are shown the sender has not sent any weather packets the latest 10 day(s).
| Time | Temp. | Humidity | Pressure | Rain* | Wind** | Luminosity | Snow |
|---|---|---|---|---|---|---|---|
| 1778277177 | 18.33° C | 58% | 1021.1 hPa | 0 mm | - | 87 W/m² | - |
| 1778276874 | 17.78° C | 61% | 1021 hPa | 0 mm | - | 90 W/m² | - |
| 1778276571 | 17.78° C | 59% | 1021.2 hPa | 0 mm | - | 92 W/m² | - |
| 1778276267 | 17.78° C | 60% | 1021.1 hPa | 0 mm | - | 377 W/m² | - |
| 1778275964 | 17.78° C | 59% | 1021.2 hPa | 0 mm | - | 559 W/m² | - |
| 1778275661 | 17.22° C | 60% | 1021.1 hPa | 0 mm | - | 98 W/m² | - |
| 1778275357 | 17.22° C | 60% | 1021.1 hPa | 0 mm | - | 614 W/m² | - |
| 1778275053 | 17.22° C | 61% | 1021 hPa | 0 mm | - | 788 W/m² | - |
| 1778274749 | 16.67° C | 61% | 1021 hPa | 0 mm | - | 797 W/m² | - |
| 1778274447 | 17.22° C | 60% | 1021.2 hPa | 0 mm | - | 805 W/m² | - |
| 1778274143 | 17.22° C | 61% | 1021.2 hPa | 0 mm | - | 813 W/m² | - |
| 1778273840 | 17.78° C | 59% | 1021.4 hPa | 0 mm | - | 816 W/m² | - |
| 1778273536 | 17.22° C | 60% | 1021.5 hPa | 0 mm | - | 823 W/m² | - |
| 1778273233 | 17.22° C | 59% | 1021.3 hPa | 0 mm | - | 833 W/m² | - |
| 1778272929 | 17.22° C | 61% | 1021.2 hPa | 0 mm | - | 834 W/m² | - |
| 1778272625 | 16.67° C | 62% | 1021.3 hPa | 0 mm | - | 839 W/m² | - |
| 1778272322 | 17.22° C | 59% | 1021.3 hPa | 0 mm | - | 842 W/m² | - |
| 1778272018 | 16.67° C | 62% | 1021.3 hPa | 0 mm | - | 848 W/m² | - |
| 1778271715 | 16.67° C | 64% | 1021.4 hPa | 0 mm | - | 852 W/m² | - |
| 1778271412 | 16.11° C | 61% | 1021.6 hPa | 0 mm | - | 855 W/m² | - |
| 1778271108 | 16.67° C | 62% | 1021.6 hPa | 0 mm | - | 856 W/m² | - |
| 1778270805 | 16.67° C | 61% | 1021.6 hPa | 0 mm | - | 854 W/m² | - |
| 1778270501 | 16.67° C | 62% | 1021.6 hPa | 0 mm | - | 856 W/m² | - |
| 1778270198 | 16.67° C | 63% | 1021.7 hPa | 0 mm | - | 856 W/m² | - |
| 1778269894 | 16.11° C | 64% | 1021.9 hPa | 0 mm | - | 852 W/m² | - |
* Rain latest hour (hover to see other rain measurements)
** Current wind speed in m/s (hover to see current wind gust speed)